Flight Track Log - Related Links

Times and Time Zones

All times are in EDT time to prevent confusion due to time zone crossing. See the AWE3794 flight status page for this flight to view local times or setup timezone preferences in your user account.

Time Position Orientation Groundspeed Altitude Reporting Facility
EDT Latitude Longitude Course Direction KTS MPH feet Rate Location/Type
09:46AM 41.3522 -81.8942 188° South 169 194 3,500  Level Cleveland Center
09:47AM 41.3106 -81.8714 158° South 186 214 5,800 2,300 Climbing Cleveland Center
09:48AM 41.2172 -81.4509 124° Southeast  Level FlightAware Approximate
09:48AM 41.2886 -81.8017 113° Southeast 170 196 8,100  Level Cleveland Center
09:49AM 41.1522 -81.3211 124° Southeast  Level FlightAware Approximate
09:49AM 41.2622 -81.7156 112° Southeast 211 243 9,500  Level Cleveland Center
09:50AM 41.0951 -81.1853 114° Southeast  Level FlightAware Approximate
09:50AM 41.2342 -81.6158 110° East 261 300 11,800  Level Cleveland Center
09:51AM 41.0481 -81.0428 109° East  Level FlightAware Approximate
09:51AM 41.2036 -81.5131 112° Southeast 282 325 13,700  Level Cleveland Center
09:52AM 41.1692 -81.4022 112° Southeast 302 348 15,900 1,950 Climbing Cleveland Center
09:53AM 41.1344 -81.2889 112° Southeast 316 364 17,600 1,450 Climbing Cleveland Center
09:54AM 41.0975 -81.1728 113° Southeast 322 371 18,800 1,250 Climbing Cleveland Center
09:55AM 41.0667 -81.0650 111° Southeast 338 389 20,100 1,400 Climbing Cleveland Center
09:56AM 41.0319 -80.9272 108° East 344 396 21,600 1,300 Climbing Cleveland Center
09:57AM 40.9967 -80.8006 110° East 354 407 22,700 1,200 Climbing Cleveland Center
09:58AM 40.9572 -80.6711 112° Southeast 366 421 24,000 1,100 Climbing Cleveland Center
09:59AM 40.9219 -80.5392 109° East 371 427 24,900 500 Climbing Cleveland Center
10:00AM 40.8842 -80.4072 111° Southeast 377 434 25,000 50 Climbing Cleveland Center
10:01AM 40.8422 -80.2731 112° Southeast 383 441 25,000  Level Cleveland Center
10:02AM 40.8000 -80.1469 114° Southeast 383 441 25,000  Level Cleveland Center
10:03AM 40.7558 -80.0239 115° Southeast 376 433 25,000  Level Cleveland Center
10:04AM 40.7114 -79.8956 115° Southeast 376 433 25,000  Level Cleveland Center
10:05AM 40.6667 -79.7728 116° Southeast 376 433 25,000  Level Cleveland Center
10:06AM 40.6219 -79.6475 115° Southeast 376 433 25,000  Level Cleveland Center
10:07AM 40.5897 -79.5331 110° East 381 438 25,000  Level Cleveland Center
10:08AM 40.5781 -79.3939 96° East 370 426 25,000  Level Cleveland Center
10:09AM 40.5575 -79.2467 100° East 370 426 25,000  Level Cleveland Center
10:10AM 40.5433 -79.1078 98° East 375 432 25,000  Level Cleveland Center
10:11AM 40.5292 -78.9742 98° East 375 432 25,000  Level Cleveland Center
10:12AM 40.5147 -78.8489 99° East 370 426 25,000  Level Cleveland Center
10:13AM 40.5000 -78.7128 98° East 370 426 25,000  Level Cleveland Center
10:14AM 40.4831 -78.5739 99° East 370 426 25,000  Level Cleveland Center
10:15AM 40.4681 -78.4325 98° East 375 432 25,000  Level Cleveland Center
10:16AM 40.4506 -78.2803 99° East 399 459 25,000  Level Cleveland Center
10:17AM 40.4375 -78.1808 100° East 400 460 25,000  Level New York Center
10:18AM 40.4214 -78.0400 99° East 436 502 25,000  Level New York Center
10:19AM 40.4014 -77.8850 100° East 436 502 25,000  Level New York Center
10:20AM 40.3856 -77.7308 98° East 430 495 25,000  Level New York Center
10:21AM 40.3653 -77.5789 100° East 430 495 25,000 -893 Level New York Center
10:22AM 40.3489 -77.4275 98° East 430 495 23,200 -2,182 Descending New York Center
10:23AM 40.3247 -77.2617 101° East 430 495 20,600 -2,331 Descending New York Center
10:24AM 40.3089 -77.1350 99° East 405 466 18,500 -1,300 Descending New York Center
10:25AM 40.2864 -77.0078 103° East 372 428 18,000 -254 Descending New York Center
10:26AM 40.2522 -76.8631 107° East 367 422 18,000  Level New York Center
10:27AM 40.2214 -76.7325 107° East 372 428 18,000  Level New York Center
10:28AM 40.1922 -76.6050 107° East 372 428 18,000  Level New York Center
10:29AM 40.1667 -76.4889 106° East 372 428 18,000 -605 Level New York Center
10:30AM 40.1339 -76.3475 107° East 372 428 16,800 -1,450 Descending New York Center
10:31AM 40.1181 -76.2378 101° East 366 421 15,100 -1,672 Descending New York Center
10:32AM 40.1069 -76.1175 97° East 319 367 13,400 -1,636 Descending New York Center
10:33AM 40.0986 -76.0244 97° East 289 333 11,800 -1,831 Descending New York Center
10:34AM 40.0928 -75.9183 94° East 270 311 9,800 -1,664 Descending New York Center
10:35AM 40.0883 -75.8339 94° East 265 305 8,500 -893 Descending New York Center
10:36AM 40.0800 -75.7356 96° East 254 292 8,000 -248 Descending New York Center
10:37AM 40.0750 -75.6536 95° East 254 292 8,000 -555 Level New York Center
10:38AM 40.0728 -75.5558 92° East 254 292 6,900 -958 Descending New York Center
10:39AM 40.0672 -75.4822 96° East 231 266 6,100 -393 Descending New York Center
10:40AM 40.0347 -75.4150 122° Southeast 210 242 6,100 -50 Level New York Center
10:41AM 39.9750 -75.3947 165° South 209 241 6,000 -51 Descending New York Center
10:42AM 39.9281 -75.4242 206° Southwest 198 228 6,000  Level New York Center
10:43AM 39.9103 -75.4989 253° West 197 227 6,000  Level New York Center
10:44AM 39.8928 -75.5733 253° West 217 250 6,000 -347 Level New York Center
10:45AM 39.8775 -75.6372 253° West 217 250 5,300 -571 Descending New York Center
10:47AM 39.8000 -75.7833 235° Southwest 206 237 4,000 -384 Descending Philadelphia TRACON
10:48AM 39.7667 -75.7333 131° Southeast 163 188 4,000  Level Philadelphia TRACON
10:49AM 39.7833 -75.6833 67° East 167 192 4,000  Level Philadelphia TRACON
10:50AM 39.8000 -75.6333 67° East 147 169 4,000  Level Philadelphia TRACON
10:51AM 39.8000 -75.5833 90° East 151 174 4,000  Level Philadelphia TRACON
10:52AM 39.8167 -75.5333 67° East 153 176 4,000 -200 Level Philadelphia TRACON
10:53AM 39.8333 -75.4667 72° East 153 176 3,600 -619 Descending Philadelphia TRACON
10:54AM 39.8333 -75.4167 90° East 162 186 2,700 -818 Descending Philadelphia TRACON

Login

Don't have an account? Register now (free) for customized features, flight alerts, and more!